{"data":{"norad_id":63819,"intl_designator":"2025-092R","name":"STARLINK-34055","alt_names":[],"object_type":"PAYLOAD","status":"ACTIVE","operator":null,"country":"US","launch_date":"2025-05-04","launch_site_code":"AFETR","launch_vehicle":null,"mission":null,"orbit_class":"UNKNOWN","rcs_meters":null,"size_class":null,"mass_kg":null,"dimensions":null,"purposes":["comms"],"wikipedia_slug":null,"has_3d_model":false,"image_url":null,"decayed_at":null,"tle_current":{"epoch":"2026-09-20T22:00:03.000096Z","epoch_age_seconds":113915,"freshness":"FRESH","line1":"1 63819U 25092R   26263.91670139  .00280397  00000+0  26873-2 0  9996","line2":"2 63819  42.9984 135.6747 0021277 247.6587 222.5654 15.64723883  5936","mean_motion":15.64723883,"eccentricity":0.0021277,"inclination_deg":42.9984,"raan_deg":135.6747,"arg_perigee_deg":247.6587,"mean_anomaly_deg":222.5654,"bstar":0.0026873,"rev_number":593,"period_min":92.02901647025,"perigee_km":359.66639259346,"apogee_km":388.39957674623,"semimajor_km":6752.1699846698,"source":"CELESTRAK","updated_at":"2026-09-21T09:00:35.106850Z"}}}